sat.trackr.live / text

‹ back to catalog

GEESAT-2 11

NORAD 58915 · 2024-023L

PAYLOAD ACTIVE UNKNOWN

§ Identity

Operator
Country
PRC
Launch date
2024-02-02
Launch site
XICLF
Launch vehicle
Mass (kg)
RCS (m²)

External: N2YO · Heavens-Above · Gunter

§ Orbital elements

Epoch: 2026-05-25T04:34:07.566240Z

Period
97.09 min
Inclination
49.9995°
Eccentricity
0.0019537
Mean motion
14.83142500 rev/d
Perigee alt
605.8 km
Apogee alt
633.1 km
Semi-major
6,997.6 km
B*
2.0796e-4
RAAN
100.4787°
Arg perigee
23.5522°
Mean anomaly
336.6306°
Rev number
12,550

§ Raw data

GEESAT-2 111 58915U 24023L   26145.19036535  .00001489  00000+0  20796-3 0  99972 58915  49.9995 100.4787 0019537  23.5522 336.6306 14.83142500125504

JSON: /api/v1/satellites/58915 · /tle

For live sub-satellite position, see the globe view (requires WebGL).

§ Visibility from observer

Set your observer location to see the next 7 days of passes ≥ 10°. The values pass through the URL so the page stays shareable.

No JS? Fill the form by hand. The geolocation button needs JavaScript.